Location: Casilda
(33.0440°S, 61.1680°W)
Time: 18:04:43
(UTC-03:00)

ISS - Pass Details

Date: 25 November 2020
Orbit: 418 x 420 km, 51.6° (Epoch: 04 December)

Event Time Altitude Azimuth Distance (km) Brightness Sun altitude
Exits shadow 04:46:00 20° 321° (NW) 1,032 -2.4 -12.4°
Maximum altitude 04:48:11 78° 44° (NE) 440 -3.7 -12.0°
Drops below altitude 10° 04:51:37 10° 131° (SE) 1,526 0.6 -11.4°
Sets 04:53:44 0° 132° (SE) 2,398 2.1 -11.0°
